Overview Statistics Trail Chart Weather Telemetry Raw packets
 

This is the latest recevied weather packets stored in our database for station/object IR3ZXT. If no packets are shown the sender has not sent any weather packets the latest 10 day(s).

<< 127 128 129 130 131 132 133 >>
Time Temp. Humidity Pressure Rain* Wind** Luminosity Snow
1787750419 18.89° C 71% 869.4 hPa 0 mm - - -
1787750119 18.89° C 70% 869.5 hPa 0 mm - - -
1787749819 18.89° C 71% 869.4 hPa 0 mm - - -
1787749519 18.89° C 70% 869.5 hPa 0 mm - - -
1787749219 18.89° C 70% 869.5 hPa 0 mm - - -
1787748922 18.89° C 71% 869.4 hPa 0 mm - - -
1787748619 18.89° C 70% 869.4 hPa 0 mm - - -
1787748319 18.89° C 70% 869.4 hPa 0 mm - - -
1787748019 18.33° C 69% 869.4 hPa 0 mm - - -
1787747719 18.33° C 70% 869.4 hPa 0 mm - - -
1787747419 18.33° C 69% 869.2 hPa 0 mm - - -
1787747154 18.89° C 68% 869.2 hPa 0 mm - - -
1787747119 18.89° C 68% 869.2 hPa 0 mm - - -
1787746819 18.89° C 67% 869.3 hPa 0 mm - - -
1787746519 19.44° C 65% 869.4 hPa 0 mm - - -
1787746219 20° C 64% 869.4 hPa 0 mm - - -
1787745919 20.56° C 65% 869.4 hPa 0 mm - - -
1787745619 20° C 65% 869.3 hPa 0 mm - - -
1787745319 20° C 66% 869.3 hPa 0 mm - - -
1787745019 19.44° C 66% 869.3 hPa 0 mm - - -
1787744719 19.44° C 64% 869.2 hPa 0 mm - - -
1787744419 20.56° C 64% 869.2 hPa 0 mm - - -
1787744119 20.56° C 61% 869.2 hPa 0 mm - - -
1787743852 20.56° C 60% 869.2 hPa 0 mm - - -
1787743819 20.56° C 60% 869.2 hPa 0 mm - - -

* Rain latest hour (hover to see other rain measurements)
** Current wind speed in m/s (hover to see current wind gust speed)